Regional Weather Roundup
Issued by NWS

Home | Current Version | Previous Version | Text Only | Print | Product List | Glossary On
Versions: 1 2 3 4 5 6 7 8 9 10 11 12 13 14 15 16 17 18 19 20 21 22 23 24 25 26 27 28 29 30 31 32 33 34 35 36 37 38 39 40 41 42 43 44 45 46 47 48 49 50
000
ASUS43 KOAX 071810
RWRNE

WEATHER ROUNDUP FOR NEBRASKA
NATIONAL WEATHER SERVICE OMAHA NE
100 PM CDT TUE JUL 07 2015

NOTES: SATELLITE DATA IS BEING USED TO AUGMENT CLOUD COVER ABOVE
       12000 FEET.
       "FAIR" INDICATES FEW OR NO CLOUDS BELOW 12,000 FEET WITH NO
       SIGNIFICANT WEATHER AND/OR OBSTRUCTIONS TO VISIBILITY.

  * THESE STATIONS DO NOT REPORT WEATHER SUCH AS RAIN...SNOW OR FOG.

NEZ001>004-019>022-054>056-071900-
NEBRASKA PANHANDLE

CITY           SKY/WX    TMP DP  RH WIND       PRES   REMARKS
SCOTTSBLUFF    CLOUDY    65  53  65 SE12      30.17F HAZE
6HR MIN TEMP:  61; 6HR MAX TEMP:  66;

ALLIANCE       CLOUDY    64  54  69 S15       30.18F
6HR MIN TEMP:  56; 6HR MAX TEMP:  65;

CHADRON        CLOUDY    71  55  56 S15       30.13F
6HR MIN TEMP:  60; 6HR MAX TEMP:  72;

KIMBALL          N/A    N/A N/A N/A MISG        N/A
SIDNEY         PTSUNNY   72  50  45 S17G24    30.20F
6HR MIN TEMP:  57; 6HR MAX TEMP:  73;

$$

NEZ057>060-069>072-079>082-071900-
SOUTHWEST NEBRASKA

CITY           SKY/WX    TMP DP  RH WIND       PRES   REMARKS
NORTH PLATTE   SUNNY     72  49  44 SE9       30.18F
6HR MIN TEMP:  51; 6HR MAX TEMP:  73;

IMPERIAL       SUNNY     74  47  38 E12       30.18F
6HR MIN TEMP:  55; 6HR MAX TEMP:  74;

LEXINGTON      SUNNY     72  53  51 E8        30.18F
MCCOOK         SUNNY     73  50  44 MISG      30.18F HAZE
6HR MIN TEMP:  55; 6HR MAX TEMP:  74;

OGALLALA       PTSUNNY   71  50  47 SE7       30.18F
$$

NEZ005>010-023>029-035>040-094-071900-
NORTH CENTRAL NEBRASKA

CITY           SKY/WX    TMP DP  RH WIND       PRES   REMARKS
VALENTINE      PTSUNNY   72  54  53 S9        30.17F
6HR MIN TEMP:  52; 6HR MAX TEMP:  74;

AINSWORTH      SUNNY     71  56  58 SE7       30.18F
BROKEN BOW     PTSUNNY   72  55  55 SE7       30.18F
6HR MIN TEMP:  52; 6HR MAX TEMP:  74;

O`NEILL        SUNNY     67  54  62 N5        30.21F
ORD            PTSUNNY   72  53  51 NE6       30.17F
6HR MIN TEMP:  50; 6HR MAX TEMP:  72;

THEDFORD       PTSUNNY   72  54  52 SE6       30.19F
$$

NEZ041-046>049-061>064-073>077-083>087-071900-
SOUTH CENTRAL NEBRASKA

CITY           SKY/WX    TMP DP  RH WIND       PRES   REMARKS
GRAND ISLAND   MOSUNNY   68  54  60 NE9       30.19F
6HR MIN TEMP:  53; 6HR MAX TEMP:  68;

AURORA         MOSUNNY   68  54  60 NE13      30.18F
HASTINGS       MOSUNNY   69  55  60 NE12G20   30.18F
6HR MIN TEMP:  56; 6HR MAX TEMP:  69;

HEBRON         SUNNY     70  50  49 NE12G18   30.16F
HOLDREGE       MOSUNNY   69  53  56 E10       30.19S
KEARNEY *      MOSUNNY   70  54  56 NE12      30.18F
YORK           MOSUNNY   68  55  64 NE13G18   30.17F
$$

NEZ011>018-030>034-042>045-071900-
NORTHEAST NEBRASKA

CITY           SKY/WX    TMP DP  RH WIND       PRES   REMARKS
NORFOLK        SUNNY     70  53  54 N12G18    30.18F
6HR MIN TEMP:  56; 6HR MAX TEMP:  70;

ALBION         SUNNY     68  51  54 N6        30.18F
BLAIR          SUNNY     67  48  50 N10G16    30.15S
FREMONT        SUNNY     69  46  44 N13G18    30.17S
TEKAMAH        SUNNY     71  49  45 N9G18     30.16S
6HR MIN TEMP:  55; 6HR MAX TEMP:  71;

WAYNE          SUNNY     67  51  57 N10G21    30.19F
$$

NEZ050>053-065>068-078-088>093-071900-
SOUTHEAST NEBRASKA

CITY           SKY/WX    TMP DP  RH WIND       PRES   REMARKS
LINCOLN        SUNNY     71  50  47 NE14G22   30.16F
6HR MIN TEMP:  56; 6HR MAX TEMP:  71;

OMAHA EPPLEY   MOSUNNY   69  51  52 NE9       30.14F
6HR MIN TEMP:  57; 6HR MAX TEMP:  69;

BEATRICE       SUNNY     68  50  51 NE16      30.15S
FALLS CITY     MOSUNNY   70  53  54 N14G20    30.12S
6HR MIN TEMP:  59; 6HR MAX TEMP:  71;

NEBRASKA CITY  SUNNY     68  45  43 N13       30.14R
PLATTSMOUTH    SUNNY     68  47  48 N8        30.15S
$$

NEZ044-045-051>053-067-071900-
OMAHA AREA

CITY           SKY/WX    TMP DP  RH WIND       PRES   REMARKS
OMAHA EPPLEY   MOSUNNY   69  51  52 NE9       30.14F
6HR MIN TEMP:  57; 6HR MAX TEMP:  69;

BLAIR          SUNNY     67  48  50 N10G16    30.15S
FREMONT        SUNNY     69  46  44 N13G18    30.17S
MILLARD        SUNNY     68  48  49 MISG      30.15F
OFFUTT AFB     SUNNY     69  51  54 N10       30.14S
PLATTSMOUTH    SUNNY     68  47  48 N8        30.15S
WAHOO          FAIR      69  49  49 N14       30.15F
$$


USA.gov is the U.S. government's official web portal to all federal, state and local government web resources and services.